Regional Weather Roundup
Issued by NWS

Home | Current Version | Previous Version | Text Only | Print | Product List | Glossary On
Versions: 1 2 3 4 5 6 7 8 9 10 11 12 13 14 15 16 17 18 19 20 21 22 23 24 25 26 27 28 29 30 31 32 33 34 35 36 37 38 39 40 41 42 43 44 45 46 47 48 49 50
000
ASUS43 KLSX 231857
RWRMO

WEATHER SUMMARY FOR MISSOURI
NATIONAL WEATHER SERVICE SPRINGFIELD MO
200 PM CDT SAT JUL 23 2016

NOTE: "FAIR" INDICATES FEW OR NO CLOUDS BELOW 12,000 FEET WITH NO
       SIGNIFICANT WEATHER AND/OR OBSTRUCTIONS TO VISIBILITY.
       CURRENT SKY AND/OR WEATHER CONDITIONS ARE NOT AVAILABLE FOR
       CHILLICOTHE AND FARMINGTON.

MOZ001>031-035>038-043-044-053-054-232000-
...NORTHERN AND WESTERN MISSOURI...

CITY           SKY/WX    TMP DP  RH WIND       PRES   REMARKS
KANSAS CTY INT CLOUDY    92  76  59 S15       29.91F HX 104
LEE`S SUMMIT   MOSUNNY   97  71  42 S14       29.93F HX 104
ST JOSEPH      CLOUDY    92  73  53 S16G22    29.87S HX 100

$$
MOZ066>068-077>081-088>096-101>105-232000-
...SOUTHWEST MISSOURI...

CITY           SKY/WX    TMP DP  RH WIND       PRES   REMARKS
SPRINGFIELD    SUNNY     97  68  38 W7        29.98F HX 102
JOPLIN         SUNNY     95  71  45 SW13      29.95F HX 102
BRANSON        MOSUNNY   95  72  46 NW5       30.01F HX 103

$$
MOZ032>034-039>042-045>050-055>058-069>072-232000-
...CENTRAL MISSOURI...

CITY           SKY/WX    TMP DP  RH WIND       PRES   REMARKS
COLUMBIA       NOT AVBL
JEFFERSON CITY MOSUNNY   96  72  45 S6        29.94S HX 104
ROLLA          MOSUNNY   93  75  55 SW9       29.98S HX 104
SEDALIA        MOSUNNY   96  75  50 S10       29.95F HX 108

$$
MOZ051-052-059>065-232000-
...EAST CENTRAL MISSOURI...

CITY           SKY/WX    TMP DP  RH WIND       PRES   REMARKS
ST LOUIS INTL  MOSUNNY   94  73  50 SE9       29.97F HX 103

$$
MOZ072>076-082>087-097>100-106>115-232000-
...SOUTH CENTRAL AND SOUTHEAST MISSOURI...

CITY           SKY/WX    TMP DP  RH WIND       PRES   REMARKS
CAPE GIRARDEAU PTSUNNY   90  74  59 S6        29.97S HX  99
POPLAR BLUFF   MOSUNNY   90  76  63 E6        29.96S HX 101
WEST PLAINS    SUNNY     94  72  48 VRB6      30.02S HX 102

$$


USA.gov is the U.S. government's official web portal to all federal, state and local government web resources and services.